Miscellaneous Local Product
Issued by NWS Hastings, NE

Home | Current Version | Previous Version | Graphics & Text | Print | Product List | Glossary On
Versions: 1 2 3 4 5 6 7 8 9 10 11 12 13 14 15 16 17 18 19 20 21 22 23 24 25 26 27 28 29 30 31 32 33 34 35 36 37 38 39 40 41 42 43 44 45 46 47 48 49 50
000
AXUS43 KGID 261802
MISGRI

GID CWA HOURLY WEATHER ROUNDUP
NATIONAL WEATHER SERVICE HASTINGS NE
1200 PM CST WED NOV 26 2014

NOTE: "FAIR" INDICATES FEW OR NO CLOUDS BELOW 12,000 FEET WITH NO
SIGNIFICANT WEATHER AND/OR OBSTRUCTIONS TO VISIBILITY.

...SOUTH CENTRAL NEBRASKA...

CITY           SKY/WX    TMP DP  RH WIND       PRES   REMARKS
GRAND ISLAND   PTSUNNY   29  19  66 N25G37    30.21S WCI  14
HASTINGS       CLOUDY    29  19  66 N26G37    30.20R WCI  14
KEARNEY        PTSUNNY   30  18  59 NW25G31   30.23S WCI  16
ORD            CLOUDY    25  17  72 N24G31    30.24S WCI   9
YORK           CLOUDY    28  21  74 N21       30.18R WCI  15
AURORA         CLOUDY    28  20  70 N25       30.20R WCI  14
LEXINGTON      PTSUNNY   32  21  63 N23G29    30.25S WCI  20
HOLDREGE       PTSUNNY   32  20  62 N17G31    30.23R WCI  21
HEBRON         CLOUDY    31  20  64 N23G33    30.17R WCI  18

...NEBRASKA PANHANDLE...

CITY           SKY/WX    TMP DP  RH WIND       PRES   REMARKS
CHADRON        CLOUDY    42  22  44 SE3       30.24F
ALLIANCE       CLOUDY    30  23  75 W6        30.22F WCI  24
SCOTTSBLUFF    FLURRIES  31  27  85 W6        30.24F WCI  25
SIDNEY         LGT SNOW  28  25  88 CALM      30.25S VSB 1

...WESTERN AND NORTH CENTRAL NEBRASKA...

CITY           SKY/WX    TMP DP  RH WIND       PRES   REMARKS
VALENTINE      CLOUDY    24  17  74 N9        30.30R WCI  14
AINSWORTH      CLOUDY    23  18  80 N15       30.28S WCI  10
ONEILL         CLOUDY    24  20  84 NW22G29   30.26R WCI   9
BROKEN BOW     CLOUDY    28  19  69 N20G29    30.25R WCI  15
IMPERIAL       CLOUDY    33  20  58 N14       30.28R WCI  23
NORTH PLATTE   NOT AVBL
MCCOOK         CLOUDY    34  19  54 N18       30.26S WCI  23

...EASTERN NEBRASKA...

CITY           SKY/WX    TMP DP  RH WIND       PRES   REMARKS
NORFOLK        CLOUDY    22  17  81 NW28      30.19R WCI   4
SO SIOUX CITY  CLOUDY    28  21  75 N22G32    30.16R WCI  14
TEKAMAH        CLOUDY    31  23  72 N30G38    30.13R WCI  16
COLUMBUS       CLOUDY    27  16  63 N20G29    30.20R WCI  13
ALBION         CLOUDY    26  18  72 NW23G29   30.21R WCI  11
OMAHA EPPLEY   FLURRIES  31  26  82 N32G43    30.08R WCI  16
OFFUTT AFB     CLOUDY    32  26  78 NW15G30   30.07R WCI  22
MILLARD        CLOUDY    33  26  77 NW16G31   30.08R WCI  22
LINCOLN        CLOUDY    30  22  72 N30G40    30.14R WCI  15
NEBRASKA CITY  CLOUDY    34  28  80 NW21G35   30.04R WCI  22
BEATRICE       CLOUDY    31  24  77 NW29G37   30.14R WCI  16
FALLS CITY     CLOUDY    35  29  78 NW25G39   30.04R WCI  23

...NORTHERN KANSAS...

CITY           SKY/WX    TMP DP  RH WIND       PRES   REMARKS
GOODLAND       CLOUDY    34  26  72 N15       30.27S WCI  24
HILL CITY      CLOUDY    37  19  48 N23G31    30.26R WCI  26
NORTON         CLOUDY    36  16  44 NW20G29   30.24F WCI  25
PHILLIPSBURG   SUNNY     39  23  52 NW22G35   30.23F WCI  29
SMITH CENTER   PTSUNNY   34  21  60 NW28G33   30.23R WCI  20
BELOIT         PTSUNNY   39  23  52 NW26      30.21R WCI  28
HAYS           CLOUDY    39  18  41 N24G33    30.24R WCI  28
RUSSELL        FAIR      40  22  48 NW24      30.22R WCI  29
CONCORDIA      CLOUDY    34  23  64 N21G28    30.17R WCI  22
SALINA         PTSUNNY   45  23  42 N28G36    30.17R
TOPEKA         PTSUNNY   43  27  53 NW25G36   30.08R



USA.gov is the U.S. government's official web portal to all federal, state and local government web resources and services.